Tracking 32420 objects as of 8-Dec-2025
HD Live streaming from Space Station
objects crossing your sky now

SHIYAN 27E

Track SHIYAN 27E now!
10-day predictions


NORAD ID: 63603
Int'l Code: 2025-078E
Perigee: 1,052.4 km
Apogee: 1,053.5 km
Inclination: 99.7 °
Period: 106.1 minutes
Semi major axis: 7423 km
RCS: Unknown
Launch date: April 18, 2025
Source: People's Republic of China (PRC)
Launch site: Taiyaun Space Center, China (TSC)
Your satellite tracking list
Your tracking list is empty




NASA's NSSDC Master Catalog

Two Line Element Set (TLE):
1 63603U 25078E   25341.97505740  .00000031  00000-0  10520-3 0  9997
2 63603  99.6919 347.0065 0000737  91.7570 268.3652 13.57228243 31591
Source of the keplerian elements: AFSPC